Regional Weather Roundup
Issued by NWS

Home | Current Version | Previous Version | Text Only | Print | Product List | Glossary Off
Versions: 1 2 3 4 5 6 7 8 9 10 11 12 13 14 15 16 17 18 19 20 21 22 23 24 25 26 27 28 29 30 31 32 33 34 35 36 37 38 39 40 41 42 43 44 45 46 47 48 49 50

000
ASUS43 KMPX 151310
RWRMN
WEATHER ROUNDUP FOR MINNESOTA
NATIONAL WEATHER SERVICE TWIN CITIES/CHANHASSEN MN
700 AM CST FRI DEC 15 2017


NOTE: "FAIR" INDICATES FEW OR NO CLOUDS BELOW 12,000 FEET WITH NO
SIGNIFICANT WEATHER AND/OR OBSTRUCTIONS TO VISIBILITY. N/A MEANS
CURRENT SKY AND/OR WEATHER CONDITIONS ARE NOT AVAILABLE.

MNZ060>063-068>070-151400-
   Twin Cities Metro

CITY           SKY/WX    TMP DP  RH WIND       PRES   REMARKS
TWIN CITIES    MOCLDY    22  19  89 NW3       29.89F
ST PAUL        CLOUDY    23  19  85 N6        29.91F WCI  16
CRYSTAL        CLOUDY    22  16  78 N5        29.89S WCI  16
BLAINE         CLOUDY    23  18  80 N3        29.89F
LAKEVILLE      CLOUDY    21  19  93 CALM      29.88F
EDEN PRAIRIE   CLOUDY    23  19  85 CALM      29.88F
SOUTH ST PAUL  CLOUDY    24  19  83 CALM      29.89F
LAKE ELMO      CLOUDY    23  18  80 CALM      29.90F
$$
MNZ001>005-007-008-013>017-022>024-027-028-151400-
   Northwest Minnesota

CITY           SKY/WX    TMP DP  RH WIND       PRES   REMARKS
BEMIDJI        CLOUDY     8   4  85 CALM      29.85S
HALLOCK        FLURRIES  14  10  85 SE5       29.88F WCI   6
ROSEAU         CLOUDY     9   3  78 CALM      29.87F
WARROAD        CLOUDY     7   3  85 CALM      29.87F
THIEF RVR FALL CLOUDY     8   5  87 CALM      29.87F
CROOKSTON      LGT SNOW  16  12  86 CALM      29.90F
FOSSTON        CLOUDY     1   0  92 CALM      29.86F
DETROIT LAKES  PTCLDY    16  14  93 W3        29.87S
MOORHEAD       MIX PCPN  19  16  86 CALM      29.90S
PARK RAPIDS    CLOUDY    11   7  84 N6        29.84S WCI   1
MAHNOMEN       PTSUNNY   11   8  89 CALM      29.85F
$$
MNZ006-009>011-018-025>026-151400-
   North Central Minnesota

CITY           SKY/WX    TMP DP  RH WIND       PRES   REMARKS
BAUDETTE       CLOUDY     8   3  80 CALM      29.86S
FLAG ISLAND    CLOUDY     5   1  85 CALM      29.86F
INTL FALLS     CLOUDY     7   1  76 W6        29.85F WCI  -3
WASKISH        CLOUDY     9   3  78 CALM      29.87S
BIG FORK       CLOUDY     9   3  78 CALM      29.85S
LONGVILLE      FLURRIES  10   7  85 N3        29.85S
GRAND RAPIDS   FLURRIES   8   4  83 NW8       29.86F WCI  -4
CRANE LAKE     CLOUDY     9   1  72 CALM      29.85F
ORR            CLOUDY     7   1  78 NW5       29.80F WCI  -2
COOK           CLOUDY     7   1  78 NW7       29.83F WCI  -5
WALKER         FLURRIES   9   5  84 N5        29.85S WCI   0
$$
MNZ012-019>021-037-151400-
   Northeast Minnesota

CITY           SKY/WX    TMP DP  RH WIND       PRES   REMARKS
DULUTH         LGT SNOW  10   6  84 NW6       29.81F FOG     WCI   0
ELY            FLURRIES   7   1  78 NW6       29.80S WCI  -3
HIBBING        CLOUDY     8   3  80 NW10      29.83F WCI  -6
EVELETH        LGT SNOW   7   1  75 NW7       29.83F WCI  -4
DULUTH HARBOR  CLOUDY    16   7  67 NW10G17   29.89F WCI   3
TWO HARBORS    LGT SNOW  16   7  67 CALM      29.81F
SILVER BAY     CLOUDY    10   7  85 CALM      29.80S
GRAND MARAIS     N/A     11   3  70 NW7       29.83R WCI   0
G MARAIS ARPRT CLOUDY     5  -2  72 NW3       29.72S
$$
MNZ029>031-032-039>041-046>048-054>057-064-151400-
   West Central Minnesota

CITY           SKY/WX    TMP DP  RH WIND       PRES   REMARKS
FERGUS FALLS   CLOUDY    19  16  86 NE5       29.92S WCI  13
WHEATON        FLURRIES  23  21  93 CALM      29.92S
MORRIS         CLOUDY    25  21  86 CALM      29.87F
ALEXANDRIA     CLOUDY    20  15  81 N6        29.86F WCI  12
ELBOW LAKE     CLOUDY    21  17  85 CALM      29.88S
WADENA         CLOUDY    12  10  92 W3        29.85F
GLENWOOD       CLOUDY    21  18  86 N5        29.87F WCI  15
APPLETON       CLOUDY    27  25  93 NE9       29.89S WCI  17
BENSON         CLOUDY    25  23  93 CALM      29.89F
ORTONVILLE     CLOUDY    25  21  86 NE8       29.89S WCI  16
MADISON        CLOUDY    34  28  80 NW5       29.88F WCI  30
WILLMAR        MIX PCPN  27  25  93 NE5       29.89F WCI  21
$$
MNZ033>034-036-042>043-049>051-058-059-151400-
   Central Minnesota

CITY           SKY/WX    TMP DP  RH WIND       PRES   REMARKS
ST CLOUD       CLOUDY    16  14  92 CALM      29.88F
SAUK CENTRE    CLOUDY    19  14  84 N7        29.87F WCI   9
PAYNESVILLE    CLOUDY    23  22  96 CALM      29.88S
AITKIN         CLOUDY    12   7  79 CALM      29.84F
PINE RIVER     CLOUDY    10   7  85 N3        29.89S
BRAINERD       MOCLDY    15   9  76 NW3       29.86F
STAPLES        CLOUDY     7   3  85 W3        29.86S
LITTLE FALLS   CLOUDY    14   9  79 CALM      29.88F
LITCHFIELD     CLOUDY    25  25 100 N5        29.88F WCI  19
BUFFALO        CLOUDY    22  19  89 CALM      29.90S
MAPLE LAKE     CLOUDY    22  21  93 CALM      29.89F
HUTCHINSON     CLOUDY    27  25  93 N7        29.89S WCI  19
$$
MNZ037-044-045-052-053-151400-
   East Central Minnesota

CITY           SKY/WX    TMP DP  RH WIND       PRES   REMARKS
PRINCETON      CLOUDY    19  12  73 CALM      29.88F
MORA           CLOUDY    16  10  79 N3        29.89F
CAMBRIDGE      MOCLDY    16   9  73 CALM      29.89F
RUSH CITY      CLOUDY    15   9  78 NW6       29.89F WCI   6
MOOSE LAKE     CLOUDY    14   7  73 CALM      29.84F
HINCKLEY       CLOUDY    18  10  73 CALM      29.88F
CLOQUET        FLURRIES  12   7  79 W8        29.83F WCI   1
MCGREGOR       CLOUDY    14   9  79 N5        29.85F WCI   6
$$
MNZ071>073-080-081-089-090-097-098-151400-
   Southwest Minnesota

CITY           SKY/WX    TMP DP  RH WIND       PRES   REMARKS
MONTEVIDEO     CLOUDY    30  28  93 CALM      29.88F
GRANITE FALLS  CLOUDY    32  29  88 NW7       29.89F WCI  26
CANBY          CLOUDY    33  28  85 SW7       29.89F WCI  26
MARSHALL       CLOUDY    31  27  85 W9        29.88F WCI  23
REDWOOD FALLS  CLOUDY    31  28  89 W8        29.88F WCI  23
OLIVIA         CLOUDY    30  28  93 CALM      29.87S
PIPESTONE      CLOUDY    28  27  93 W8        29.87F WCI  20
WINDOM           N/A     30  18  59 SW10      29.89F WCI  21
WORTHINGTON    CLOUDY    29  26  89 W14       29.91F WCI  18
JACKSON        CLOUDY    30  27  86 MISG      29.91S
TRACY          CLOUDY    32  28  86 W6        29.88F WCI  26
SLAYTON        CLOUDY    29  27  92 W9        29.89F WCI  21
$$
MNZ065>067-074>077-082>085-091>093-151400-
   South Central Minnesota

CITY           SKY/WX    TMP DP  RH WIND       PRES   REMARKS
MANKATO        FLURRIES  27  25  92 W3        29.90S
NEW ULM        CLOUDY    28  25  86 W5        29.89S WCI  23
ST JAMES       CLOUDY    30  27  86 SW9       29.91S WCI  22
FAIRMONT       FLURRIES  29  26  89 W12       29.92S WCI  19
GLENCOE        CLOUDY    26  26 100 CALM      29.88S
FARIBAULT      LGT SNOW  25  25 100 CALM      29.89S
OWATONNA       LGT SNOW  27  25  93 SW8       29.88F WCI  18
WASECA         LGT SNOW  27  23  86 CALM      29.90F
ALBERT LEA     CLOUDY    27  23  86 W6        29.89F WCI  20
$$
MNZ078>079-086>088-094>096-151400-
   Southeast Minnesota

CITY           SKY/WX    TMP DP  RH WIND       PRES   REMARKS
ROCHESTER      LGT SNOW  23  22  96 SW7       29.88F FOG     WCI  15
RED WING       CLOUDY    25  18  74 CALM      29.90S
STANTON        CLOUDY    25  21  84 CALM      29.88F
DODGE CENTER   LGT SNOW  23  21  93 SW9       29.87F WCI  13
WINONA           N/A     25  19  80 NW5       29.92S WCI  19
AUSTIN         LGT SNOW  27  21  80 W5        29.89F WCI  21
PRESTON        LGT SNOW  23  19  87 SW3       29.90S
$$
ABBREVIATIONS USED IN REMARKS
   TC - TEMPERATURES IN CELSIUS
  WCI - WIND CHILL INDEX
   HX - HEAT INDEX
  VSB - VISIBILITY
$$




USA.gov is the U.S. government's official web portal to all federal, state and local government web resources and services.